Date String (YYYY-MM-DD hh:mm:ss) UTC,Instrument flags,Ambient pressure (hPa),Sample flow (lpm),Bypass flow (lpm),Sample temperature (°C),Ambient temperature (°C),ASC tube jacket temperature (°C),LED temperature (°C),Box temperature (°C),Sample RH (%),Span deviation,Mass concentration (μg/m³),Mass concentration (μg/m³),Mass concentration (μg/m³)
DateTimeUTC,F1_M11,P_M11,Q1_M11,Q2_M11,T1_M11,T2_M11,T3_M11,T4_M11,T5_M11,U1_M11,ZSPAN_M11,X0_M11,X2_M11,X1_M11
2022-11-08 10:00:00,,0822.1,5.00,0.00,23.8,22.3,00.0,32.7,25.6,13.0,0004.3,0007.96,0003.91,0003.56
2022-11-08 10:01:00,,0822.1,5.01,0.00,23.8,22.3,00.0,32.7,25.7,12.3,0004.3,0007.06,0003.61,0003.29
2022-11-08 10:02:00,,0822.1,5.01,0.00,23.8,22.3,00.0,32.7,25.7,12.0,0003.4,0006.37,0003.51,0003.18
2022-11-08 10:03:00,,0822.2,4.98,0.00,23.8,22.3,00.0,32.7,25.6,12.1,0003.3,0005.94,0003.44,0003.09
2022-11-08 10:04:00,,0822.2,4.99,0.00,23.8,22.3,00.0,32.7,25.6,12.7,0002.9,0006.37,0003.44,0003.03
2022-11-08 10:05:00,,0822.2,5.02,0.00,23.8,22.2,00.0,32.7,25.6,12.9,0002.0,0007.22,0003.51,0003.12
2022-11-08 10:06:00,,0822.1,5.01,0.00,23.8,22.2,00.0,32.7,25.6,13.6,-000.0,0007.51,0003.62,0003.20
2022-11-08 10:07:00,,0821.9,4.98,0.00,23.8,22.3,00.0,32.7,25.6,13.2,-000.7,0007.86,0003.73,0003.31
2022-11-08 10:08:00,,0822.1,5.00,0.00,23.8,22.3,00.0,32.7,25.6,13.2,-001.1,0008.59,0003.81,0003.38
2022-11-08 10:09:00,,0822.0,5.00,0.00,23.8,22.3,00.0,32.7,25.6,13.5,-001.3,0008.91,0003.89,0003.45
2022-11-08 10:10:00,,0822.0,5.00,0.00,23.8,22.3,00.0,32.7,25.6,13.9,-000.8,0009.45,0004.11,0003.61
2022-11-08 10:11:00,,0822.1,5.00,0.00,23.8,22.3,00.0,32.7,25.6,14.5,-000.4,0010.51,0004.42,0003.85
2022-11-08 10:12:00,,0822.1,5.00,0.00,23.8,22.3,00.0,32.6,25.6,14.5,0000.1,0011.76,0004.66,0004.05
2022-11-08 10:13:00,,0822.2,5.01,0.00,23.8,22.2,00.0,32.6,25.6,14.8,0000.5,0013.01,0004.95,0004.31
2022-11-08 10:14:00,,0822.1,5.01,0.00,23.8,22.2,00.0,32.6,25.6,14.8,0000.3,0013.70,0005.22,0004.52
2022-11-08 10:15:00,,0822.1,5.00,0.00,23.8,22.2,00.0,32.7,25.6,14.9,-000.1,0014.09,0005.46,0004.74
2022-11-08 10:16:00,,0822.0,5.00,0.00,23.8,22.2,00.0,32.6,25.6,15.1,0000.1,0014.15,0005.71,0004.96
2022-11-08 10:17:00,,0822.0,5.00,0.00,23.8,22.2,00.0,32.6,25.6,14.1,0000.4,0014.30,0005.83,0005.07
2022-11-08 10:18:00,,0821.9,5.00,0.00,23.8,22.3,00.0,32.6,25.6,13.7,0001.0,0014.28,0005.82,0005.05
2022-11-08 10:19:00,,0821.8,5.00,0.00,23.8,22.3,00.0,32.6,25.6,14.2,0000.7,0013.73,0005.95,0005.14
2022-11-08 10:20:00,,0821.8,4.99,0.00,23.8,22.3,00.0,32.6,25.6,14.3,0001.2,0013.71,0006.07,0005.23
2022-11-08 10:21:00,,0821.8,5.00,0.00,23.8,22.3,00.0,32.6,25.6,14.7,0001.2,0013.61,0006.11,0005.29
2022-11-08 10:22:00,,0821.8,5.01,0.00,23.8,22.2,00.0,32.6,25.6,14.6,0001.4,0013.00,0006.10,0005.30
2022-11-08 10:23:00,,0821.8,5.01,0.00,23.8,22.2,00.0,32.6,25.6,14.7,0001.5,0013.11,0006.14,0005.36
2022-11-08 10:24:00,,0821.8,4.98,0.00,23.8,22.2,00.0,32.6,25.6,14.8,0001.5,0012.90,0006.16,0005.39
2022-11-08 10:25:00,,0821.9,5.01,0.00,23.8,22.2,00.0,32.6,25.6,14.6,0001.9,0012.67,0006.12,0005.39
2022-11-08 10:26:00,,0822.0,5.01,0.00,23.8,22.2,00.0,32.6,25.6,14.6,0002.3,0012.62,0006.08,0005.37
2022-11-08 10:27:00,,0822.1,4.99,0.00,23.8,22.2,00.0,32.6,25.6,14.9,0001.7,0012.39,0006.04,0005.35
2022-11-08 10:28:00,,0822.0,4.99,0.00,23.7,22.2,00.0,32.6,25.5,14.9,0001.2,0013.39,0006.11,0005.42
2022-11-08 10:29:00,,0822.0,5.01,0.00,23.7,22.2,00.0,32.6,25.5,14.4,0000.6,0014.66,0006.22,0005.52
2022-11-08 10:30:00,,0822.0,5.00,0.00,23.7,22.2,00.0,32.6,25.5,14.8,0000.3,0015.09,0006.31,0005.58
2022-11-08 10:31:00,,0821.9,5.00,0.00,23.7,22.2,00.0,32.6,25.5,15.1,-000.4,0015.43,0006.42,0005.67
2022-11-08 10:32:00,,0821.9,4.99,0.00,23.7,22.2,00.0,32.6,25.5,15.2,-000.9,0015.75,0006.54,0005.76
2022-11-08 10:33:00,,0821.8,5.01,0.00,23.7,22.2,00.0,32.6,25.5,15.3,-001.0,0016.57,0006.68,0005.86
2022-11-08 10:34:00,,0822.0,5.00,0.00,23.7,22.2,00.0,32.6,25.5,15.5,-001.0,0016.15,0006.80,0005.97
2022-11-08 10:35:00,,0821.9,4.99,0.00,23.7,22.2,00.0,32.6,25.6,15.1,-001.0,0016.01,0006.91,0006.02
2022-11-08 10:36:00,,0822.0,5.01,0.00,23.7,22.2,00.0,32.6,25.5,14.9,-001.6,0016.17,0007.00,0006.07
2022-11-08 10:37:00,,0821.9,5.00,0.00,23.7,22.2,00.0,32.6,25.5,15.0,-002.3,0016.80,0007.11,0006.12
2022-11-08 10:38:00,,0822.2,4.99,0.00,23.7,22.2,00.0,32.6,25.5,15.2,-002.5,0018.01,0007.16,0006.14
2022-11-08 10:39:00,,0821.9,4.99,0.00,23.7,22.2,00.0,32.6,25.5,15.3,-002.4,0017.38,0007.27,0006.19
2022-11-08 10:40:00,,0821.9,5.00,0.00,23.7,22.2,00.0,32.6,25.5,15.2,-002.5,0016.70,0007.40,0006.26
2022-11-08 10:41:00,,0822.2,4.99,0.00,23.7,22.2,00.0,32.6,25.5,15.3,-002.5,0016.75,0007.44,0006.33
2022-11-08 10:42:00,,0822.1,5.00,0.00,23.7,22.2,00.0,32.6,25.5,15.1,-002.5,0017.16,0007.43,0006.35
2022-11-08 10:43:00,,0822.1,5.01,0.00,23.7,22.1,00.0,32.6,25.5,13.9,-002.2,0017.37,0007.27,0006.24
2022-11-08 10:44:00,,0822.1,5.00,0.00,23.7,22.1,00.0,32.5,25.5,13.3,-002.2,0016.35,0006.96,0005.99
2022-11-08 10:45:00,,0822.1,4.99,0.00,23.7,22.1,00.0,32.5,25.5,14.0,-002.5,0015.76,0006.75,0005.81
2022-11-08 10:46:00,,0821.9,5.00,0.00,23.6,22.1,00.0,32.5,25.5,15.0,-002.6,0015.47,0006.66,0005.75
2022-11-08 10:47:00,,0821.9,5.01,0.00,23.6,22.1,00.0,32.5,25.5,15.3,-002.4,0015.38,0006.68,0005.78
2022-11-08 10:48:00,,0821.8,5.00,0.00,23.6,22.1,00.0,32.5,25.5,15.0,-001.8,0014.97,0006.65,0005.78
2022-11-08 10:49:00,,0821.8,5.00,0.00,23.6,22.1,00.0,32.5,25.5,14.5,-001.3,0013.93,0006.56,0005.73
2022-11-08 10:50:00,,0821.8,5.01,0.00,23.6,22.1,00.0,32.5,25.5,13.9,-000.8,0013.71,0006.34,0005.57
2022-11-08 10:51:00,,0821.8,5.00,0.00,23.6,22.1,00.0,32.5,25.5,13.6,-000.2,0013.10,0006.08,0005.37
2022-11-08 10:52:00,,0822.0,4.97,0.00,23.6,22.1,00.0,32.5,25.5,13.9,0000.3,0013.29,0005.92,0005.22
2022-11-08 10:53:00,,0822.0,5.03,0.00,23.6,22.1,00.0,32.5,25.5,13.6,0000.5,0012.35,0005.71,0005.04
2022-11-08 10:54:00,,0821.9,5.00,0.00,23.6,22.1,00.0,32.5,25.5,13.4,0000.7,0011.65,0005.59,0004.92
2022-11-08 10:55:00,,0821.8,4.99,0.00,23.6,22.1,00.0,32.5,25.5,13.9,0001.0,0012.29,0005.68,0004.97
2022-11-08 10:56:00,,0821.8,4.99,0.00,23.6,22.1,00.0,32.5,25.4,13.6,0000.8,0012.37,0005.65,0004.94
2022-11-08 10:57:00,,0822.3,5.01,0.00,23.6,22.1,00.0,32.5,25.4,13.2,0000.4,0012.02,0005.42,0004.74
2022-11-08 10:58:00,,0822.0,5.01,0.00,23.6,22.1,00.0,32.5,25.4,13.3,0000.1,0011.88,0005.11,0004.52
2022-11-08 10:59:00,,0821.8,4.99,0.00,23.6,22.1,00.0,32.5,25.5,13.4,0000.5,0011.65,0004.92,0004.35
